Regional Weather Roundup
Issued by NWS

Home | Current Version | Previous Version | Graphics & Text | Print | Product List | Glossary On
Versions: 1 2 3 4 5 6 7 8 9 10 11 12 13 14 15 16 17 18 19 20 21 22 23 24 25 26 27 28 29 30 31 32 33 34 35 36 37 38 39 40 41 42 43 44 45 46 47 48 49 50
000
ASUS44 KMEG 180010
RWRTN
TENNESSEE HOURLY STATE WEATHER ROUNDUP
NATIONAL WEATHER SERVICE MEMPHIS TN
600 PM CST TUE JAN 17 2017

TNZ002-004-019-021-049-052-054-088>092-180100-
WEST TENNESSEE

CITY           SKY/WX    TMP DP  RH WIND       PRES   REMARKS
MEMPHIS INTL   CLOUDY    52  46  80 W5        30.15R
NWS MEMPHIS      N/A     52 N/A N/A MISG        N/A
JACKSON        CLOUDY    51  45  79 W6        30.14R
DYERSBURG      CLOUDY    46  41  81 NW6       30.15R
UNION CITY     CLOUDY    46  46 100 NW6       30.14R
PARIS          CLOUDY    46  41  81 W8        30.13R
HUNTINGDON     CLOUDY    50  46  87 NW5       30.13R
$$

TNZ008-025-027-028-033-062-065-066-180100-
NORTH MIDDLE TENNESSEE

CITY           SKY/WX    TMP DP  RH WIND       PRES   REMARKS
NASHVILLE      CLOUDY    60  50  69 W8        30.10R
PORTLAND       CLOUDY    55  48  76 W8        30.09R
CLARKSVILLE    CLOUDY    53  44  71 W10       30.11R
SMYRNA         CLOUDY    59  55  87 W9        30.11R
GALLATIN       CLOUDY    61  48  63 W7G17     30.11R
CROSSVILLE     LGT RAIN  61  58  90 SW10G20   30.09S
$$

TNZ061-075-076-078-094-096-097-180100-
SOUTH MIDDLE TENNESSEE

CITY           SKY/WX    TMP DP  RH WIND       PRES   REMARKS
FAYETTEVILLE   CLOUDY    64  63  94 SW14      30.12R
TULLAHOMA      CLOUDY    63  61  94 SW14      30.11R
WINCHESTER     CLOUDY    64  61  88 SW7       30.11S
MCMINNVILLE    CLOUDY    64  64 100 SW13      30.08S
COLUMBIA       CLOUDY   N/A N/A N/A W9        30.09S
SHELBYVILLE    CLOUDY    64  63  94 SW8       30.11R
$$

TNZ017-018-042-046-047-180100-
NORTHEAST TENNESSEE

CITY           SKY/WX    TMP DP  RH WIND       PRES   REMARKS
TRI CITIES     CLOUDY    57  56  96 CALM      30.07R
ELIZABETHTON   CLOUDY    57  57 100 CALM      30.08R FOG
$$

TNZ012-013-036-069-073-074-180100-
CENTRAL EAST TENNESSEE

CITY           SKY/WX    TMP DP  RH WIND       PRES   REMARKS
KNOXVILLE      LGT RAIN  64  58  80 W13       30.07R
OAK RIDGE      LGT RAIN  62  60  93 VRB6      30.08F
GATLINBURG     CLOUDY    64  55  72 SW9       30.06R
MORRISTOWN     CLOUDY    63  59  88 W8G14     30.06S
JACKSBORO      CLOUDY    66  59  77 SW13G18   30.07S
$$

TNZ083-085-099-180100-
SOUTHEAST TENNESSEE

CITY           SKY/WX    TMP DP  RH WIND       PRES   REMARKS
CHATTANOOGA    LGT RAIN  69  58  67 S8        30.10F
$$

SKY/WX REPORTED AS FAIR MEANS FEW OR NO CLOUDS BELOW
12 THOUSAND FEET.





USA.gov is the U.S. government's official web portal to all federal, state and local government web resources and services.